Location: Terra Rouge Observatory
(46.0000°N, 62.7500°W)
Time: 08:38:27
(UTC-03:00)

Amateur Radio Satellites - All Passes

Search period start: 02 September 2014 08:08
Search period end: 03 September 2014 08:08
Location: Terra Rouge Observatory, 46.0000°N, 62.7500°W

Satellite Date Start Highest point End Downlink Frequencies (MHz)
Time Altitude Azimuth
Saudisat 1A 02 Sep 08:12:10 08:15:38 23° 246° (WSW) 08:19:05 436.775 MHz
KITSAT 1 02 Sep 08:20:02 08:28:10 82° 55° (NE) 08:36:15 435.175 FM
AO-7 02 Sep 08:24:19 08:29:37 19° 316° (NW) 08:34:53 29.400 - 29.500 MHz
RS-15 02 Sep 08:27:16 08:38:19 84° 123° (ESE) 08:49:17 29.354 - 29.394 USB, Beacon 29.352 USB
STRAND 1 02 Sep 08:47:15 08:49:12 12° 273° (W) 08:51:08 ?
Hamsat 02 Sep 08:59:22 09:00:20 11° 302° (WNW) 09:01:18 145.90 MHz
JAS-2 02 Sep 09:12:55 09:15:52 15° 302° (WNW) 09:18:54 435.800 - 435.900 CW/SSB, 435.910 FM
HO-68 02 Sep 09:13:14 09:18:57 25° 92° (E) 09:24:38 435.675 MHz FM
ISS 02 Sep 09:16:29 09:17:47 12° 132° (SE) 09:19:06 145.800 FM
SO-50 02 Sep 09:35:46 09:37:25 12° 22° (NNE) 09:39:05 436.795 FM
SO-67 02 Sep 09:37:09 09:39:04 14° 295° (WNW) 09:40:59 435.3500 MHz FM
KITSAT 1 02 Sep 10:16:32 10:22:41 25° 256° (WSW) 10:28:49 435.175 FM
RS-15 02 Sep 10:41:52 10:51:58 40° 331° (NNW) 11:02:07 29.354 - 29.394 USB, Beacon 29.352 USB
ISS 02 Sep 10:50:41 10:54:00 73° 149° (SSE) 10:57:20 145.800 FM
UKube-1 02 Sep 10:55:01 10:59:24 88° 285° (WNW) 11:03:44 145.840 MHz, 145.915 MHz
Oscar 11 02 Sep 10:58:15 11:02:39 70° 102° (ESE) 11:06:59 145.825 FM, Beacon 2401.500 USB
HO-68 02 Sep 11:00:08 11:07:15 70° 291° (WNW) 11:14:21 435.675 MHz FM
SO-50 02 Sep 11:14:53 11:19:20 37° 44° (NE) 11:23:50 436.795 FM
UOSAT-12 02 Sep 11:20:42 11:22:06 11° 20° (NNE) 11:23:29 437.025 FM, 437.400 FM
FUNcube-1 02 Sep 11:31:16 11:35:47 64° 101° (E) 11:40:22 145.950 - 145.970 MHz USB
JAS-1B 02 Sep 11:42:03 11:44:02 11° 42° (NE) 11:45:58 435.800 - 435.900 CW/SSB
Oscar 16 02 Sep 12:15:50 12:18:47 16° 57° (ENE) 12:21:44 437.025 USB, Beacon 2401.1428
MaSat-1 02 Sep 12:22:09 12:26:06 24° 105° (ESE) 12:30:11 437.345 MHz
ISS 02 Sep 12:27:51 12:30:57 34° 349° (NNW) 12:34:03 145.800 FM
UKube-1 02 Sep 12:33:35 12:34:54 11° 303° (WNW) 12:36:13 145.840 MHz, 145.915 MHz
Oscar 11 02 Sep 12:35:56 12:38:17 14° 300° (WNW) 12:40:38 145.825 FM, Beacon 2401.500 USB
AO-27 02 Sep 12:49:19 12:51:55 14° 56° (NE) 12:54:31 436.795 MHz FM
HO-68 02 Sep 12:49:32 12:53:45 17° 312° (NW) 12:57:58 435.675 MHz FM
SO-50 02 Sep 12:55:31 12:59:54 36° 243° (WSW) 13:04:19 436.795 FM
RS-15 02 Sep 12:59:05 13:08:14 29° 5° (N) 13:17:31 29.354 - 29.394 USB, Beacon 29.352 USB
UOSAT-12 02 Sep 12:59:19 13:03:40 34° 43° (NE) 13:07:58 437.025 FM, 437.400 FM
FUNcube-1 02 Sep 13:08:52 13:11:43 17° 298° (WNW) 13:14:35 145.950 - 145.970 MHz USB
Oscar 19 02 Sep 13:17:09 13:22:04 46° 69° (ENE) 13:27:02 437.125 CW, 437.150 USB
AO-Echo 02 Sep 13:23:21 13:27:24 26° 65° (ENE) 13:31:23 ?
JAS-1B 02 Sep 13:23:57 13:32:35 42° 63° (ENE) 13:40:14 435.800 - 435.900 CW/SSB
Gurwin Techsat 1B 02 Sep 13:32:36 13:35:44 16° 57° (ENE) 13:38:52 435.225 FM
AO-7 02 Sep 13:52:05 13:56:13 15° 39° (NE) 14:00:21 29.400 - 29.500 MHz
Oscar 16 02 Sep 13:52:15 13:57:26 86° 256° (WSW) 14:02:40 437.025 USB, Beacon 2401.1428
ITAMSAT 1 02 Sep 13:55:57 14:00:53 47° 69° (ENE) 14:05:50 435.822 SSB
MaSat-1 02 Sep 13:57:51 14:02:46 54° 304° (WNW) 14:07:51 437.345 MHz
Uribyol 2 02 Sep 14:05:01 14:10:04 60° 71° (ENE) 14:15:10 436.500 FM
ISS 02 Sep 14:05:10 14:08:14 32° 9° (N) 14:11:17 145.800 FM
TMSAT-1 02 Sep 14:20:34 14:25:03 29° 64° (ENE) 14:29:33 436.925 FM
AO-27 02 Sep 14:25:29 14:30:40 86° 74° (ENE) 14:35:52 436.795 MHz FM
UOSAT-12 02 Sep 14:39:29 14:43:53 39° 242° (WSW) 14:48:13 437.025 FM, 437.400 FM
Oscar 19 02 Sep 14:57:24 15:01:38 25° 267° (W) 15:05:54 437.125 CW, 437.150 USB
AO-Echo 02 Sep 15:01:17 15:06:00 42° 262° (W) 15:10:37 ?
Gurwin Techsat 1B 02 Sep 15:09:41 15:15:00 85° 256° (WSW) 15:20:21 435.225 FM
JAS-1B 02 Sep 15:13:20 15:22:51 59° 260° (W) 15:31:16 435.800 - 435.900 CW/SSB
RS-15 02 Sep 15:13:22 15:23:59 49° 38° (NE) 15:34:54 29.354 - 29.394 USB, Beacon 29.352 USB
Oscar 16 02 Sep 15:35:48 15:37:34 12° 274° (W) 15:39:20 437.025 USB, Beacon 2401.1428
ITAMSAT 1 02 Sep 15:36:26 15:40:36 24° 267° (W) 15:44:48 435.822 SSB
MaSat-1 02 Sep 15:38:39 15:40:56 13° 324° (NW) 15:43:13 437.345 MHz
AO-7 02 Sep 15:39:12 15:47:09 52° 62° (ENE) 15:55:07 29.400 - 29.500 MHz
ISS 02 Sep 15:41:54 15:45:15 90° 11° (N) 15:48:35 145.800 FM
Uribyol 2 02 Sep 15:46:19 15:49:57 19° 269° (W) 15:53:37 436.500 FM
Uosat F 02 Sep 15:54:11 15:58:48 39° 67° (ENE) 16:03:27 435.120 FM
TMSAT-1 02 Sep 15:59:47 16:04:47 43° 262° (W) 16:09:50 436.925 FM
AO-27 02 Sep 16:08:30 16:10:52 13° 272° (W) 16:13:15 436.795 MHz FM
Sapphire 02 Sep 16:09:33 16:13:59 27° 109° (ESE) 16:18:26 437.095 MHz 1200 baud AX-25 AFSK
PCSat 02 Sep 16:37:45 16:42:55 48° 115° (ESE) 16:48:07 145.825 MHz
Hamsat 02 Sep 16:43:44 16:45:11 12° 59° (ENE) 16:46:38 145.90 MHz
Gurwin Techsat 1B 02 Sep 16:53:50 16:55:46 12° 274° (W) 16:57:42 435.225 FM
JAS-1B 02 Sep 17:11:13 17:14:47 13° 278° (W) 17:18:14 435.800 - 435.900 CW/SSB
ISS 02 Sep 17:19:32 17:21:34 15° 226° (SW) 17:23:35 145.800 FM
OPAL 02 Sep 17:23:45 17:28:40 39° 100° (E) 17:33:31 ?
RS-15 02 Sep 17:26:00 17:36:50 64° 243° (WSW) 17:48:06 29.354 - 29.394 USB, Beacon 29.352 USB
AO-7 02 Sep 17:32:23 17:40:07 41° 262° (W) 17:47:53 29.400 - 29.500 MHz
Uosat F 02 Sep 17:33:24 17:37:42 28° 265° (W) 17:42:00 435.120 FM
JAS-2 02 Sep 17:41:01 17:46:37 47° 69° (ENE) 17:51:45 435.800 - 435.900 CW/SSB, 435.910 FM
Sapphire 02 Sep 17:51:49 17:57:06 53° 308° (NW) 18:02:25 437.095 MHz 1200 baud AX-25 AFSK
Hamsat 02 Sep 18:16:06 18:20:27 89° 259° (W) 18:24:51 145.90 MHz
PCSat 02 Sep 18:21:40 18:26:32 33° 315° (NW) 18:31:25 145.825 MHz
SO-67 02 Sep 18:38:56 18:41:36 21° 68° (ENE) 18:44:18 435.3500 MHz FM
OPAL 02 Sep 19:02:50 19:07:25 32° 298° (WNW) 19:11:58 ?
STRAND 1 02 Sep 19:12:49 19:17:01 25° 94° (E) 19:21:11 ?
JAS-2 02 Sep 19:27:01 19:31:55 27° 265° (W) 19:36:30 435.800 - 435.900 CW/SSB, 435.910 FM
Sapphire 02 Sep 19:38:53 19:41:48 14° 331° (NNW) 19:44:44 437.095 MHz 1200 baud AX-25 AFSK
RS-15 02 Sep 19:41:42 19:46:51 14° 265° (W) 19:52:06 29.354 - 29.394 USB, Beacon 29.352 USB
HO-68 02 Sep 19:45:04 19:50:46 27° 55° (NE) 19:56:28 435.675 MHz FM
PCSat 02 Sep 20:10:40 20:11:44 11° 339° (NNW) 20:12:49 145.825 MHz
SO-67 02 Sep 20:11:36 20:14:33 26° 265° (W) 20:17:30 435.3500 MHz FM
UKube-1 02 Sep 20:19:20 20:21:29 14° 59° (ENE) 20:23:38 145.840 MHz, 145.915 MHz
MaSat-1 02 Sep 20:37:23 20:39:48 14° 37° (NE) 20:42:06 437.345 MHz
STRAND 1 02 Sep 20:51:33 20:56:24 45° 291° (WNW) 21:01:15 ?
HO-68 02 Sep 21:30:44 21:37:52 73° 255° (WSW) 21:45:02 435.675 MHz FM
UKube-1 02 Sep 21:52:47 21:57:07 74° 257° (WSW) 22:01:28 145.840 MHz, 145.915 MHz
Oscar 11 02 Sep 21:55:28 21:59:48 74° 74° (ENE) 22:04:10 145.825 FM, Beacon 2401.500 USB
MaSat-1 02 Sep 22:13:08 22:17:47 74° 60° (ENE) 22:21:46 437.345 MHz
Saudisat 1A 02 Sep 22:19:55 22:24:10 50° 121° (ESE) 22:28:27 436.775 MHz
FUNcube-1 02 Sep 22:30:10 22:34:20 68° 74° (ENE) 22:38:39 145.950 - 145.970 MHz USB
KITSAT 1 02 Sep 22:51:10 22:58:32 41° 111° (ESE) 23:05:55 435.175 FM
Sapphire 02 Sep 23:12:06 23:14:09 12° 25° (NNE) 23:16:12 437.095 MHz 1200 baud AX-25 AFSK
HO-68 02 Sep 23:23:32 23:26:47 13° 275° (W) 23:30:04 435.675 MHz FM
Oscar 11 02 Sep 23:34:54 23:36:31 12° 272° (W) 23:38:08 145.825 FM, Beacon 2401.500 USB
PCSat 02 Sep 23:40:32 23:44:00 17° 33° (NNE) 23:47:27 145.825 MHz
MaSat-1 02 Sep 23:52:15 23:53:53 12° 262° (W) 23:55:27 437.345 MHz
Saudisat 1A 03 Sep 00:00:15 00:03:59 26° 320° (NW) 00:07:45 436.775 MHz
FUNcube-1 03 Sep 00:09:31 00:11:16 12° 272° (W) 00:13:02 145.950 - 145.970 MHz USB
AO-40 03 Sep 00:31:25 01:07:31 11° 113° (ESE) 01:36:30 Beacon 2401.320
KITSAT 1 03 Sep 00:45:47 00:53:43 57° 312° (NW) 01:01:42 435.175 FM
Sapphire 03 Sep 00:54:03 00:59:10 40° 48° (NE) 01:04:15 437.095 MHz 1200 baud AX-25 AFSK
PCSat 03 Sep 01:23:03 01:28:29 67° 55° (NE) 01:33:53 145.825 MHz
Oscar 19 03 Sep 01:27:57 01:30:24 13° 87° (E) 01:32:51 437.125 CW, 437.150 USB
Oscar 16 03 Sep 02:01:55 02:06:23 28° 94° (E) 02:10:48 437.025 USB, Beacon 2401.1428
ITAMSAT 1 03 Sep 02:07:54 02:10:27 14° 88° (E) 02:12:58 435.822 SSB
Uribyol 2 03 Sep 02:16:17 02:19:43 18° 90° (E) 02:23:08 436.500 FM
AO-27 03 Sep 02:36:33 02:40:50 25° 94° (E) 02:45:05 436.795 MHz FM
Sapphire 03 Sep 02:37:36 02:42:34 37° 248° (WSW) 02:47:30 437.095 MHz 1200 baud AX-25 AFSK
KITSAT 1 03 Sep 02:44:57 02:51:04 23° 338° (NNW) 02:57:12 435.175 FM
JAS-1B 03 Sep 02:58:06 03:04:12 37° 94° (E) 03:09:36 435.800 - 435.900 CW/SSB
OPAL 03 Sep 03:05:05 03:07:59 15° 54° (NE) 03:10:55 ?
Oscar 19 03 Sep 03:05:12 03:10:26 85° 285° (WNW) 03:15:37 437.125 CW, 437.150 USB
AO-Echo 03 Sep 03:05:36 03:10:10 49° 100° (E) 03:14:45 ?
PCSat 03 Sep 03:07:28 03:11:23 21° 253° (WSW) 03:15:18 145.825 MHz
SO-50 03 Sep 03:12:34 03:16:45 41° 118° (ESE) 03:21:04 436.795 FM
Gurwin Techsat 1B 03 Sep 03:23:44 03:28:28 32° 95° (E) 03:33:10 435.225 FM
Oscar 16 03 Sep 03:40:59 03:45:52 42° 292° (WNW) 03:50:43 437.025 USB, Beacon 2401.1428
AO-7 03 Sep 03:41:25 03:43:50 11° 83° (E) 03:46:13 29.400 - 29.500 MHz
ITAMSAT 1 03 Sep 03:45:23 03:50:36 84° 286° (WNW) 03:55:48 435.822 SSB
Uribyol 2 03 Sep 03:54:30 03:59:40 67° 288° (WNW) 04:04:49 436.500 FM
TMSAT-1 03 Sep 04:12:40 04:17:57 63° 102° (ESE) 04:23:11 436.925 FM
AO-27 03 Sep 04:15:36 04:20:33 46° 292° (WNW) 04:25:29 436.795 MHz FM
OPAL 03 Sep 04:41:02 04:46:08 90° 253° (WSW) 04:51:21 ?
KITSAT 1 03 Sep 04:44:35 04:49:57 19° 9° (N) 04:55:17 435.175 FM
AO-Echo 03 Sep 04:45:08 04:48:39 21° 297° (WNW) 04:52:11 ?
Oscar 19 03 Sep 04:46:23 04:48:59 14° 304° (NW) 04:51:36 437.125 CW, 437.150 USB
JAS-1B 03 Sep 04:48:46 04:54:55 38° 298° (WNW) 05:00:20 435.800 - 435.900 CW/SSB
UOSAT-12 03 Sep 04:52:46 04:56:58 35° 117° (ESE) 05:01:14 437.025 FM, 437.400 FM
SO-50 03 Sep 04:53:23 04:57:25 31° 318° (NW) 05:01:34 436.795 FM
Gurwin Techsat 1B 03 Sep 05:03:36 05:08:29 38° 293° (WNW) 05:13:21 435.225 FM
Saudisat 1A 03 Sep 05:05:31 05:08:29 17° 33° (NNE) 05:11:25 436.775 MHz
ITAMSAT 1 03 Sep 05:26:47 05:29:19 14° 305° (NW) 05:31:50 435.822 SSB
AO-7 03 Sep 05:30:09 05:38:22 61° 104° (ESE) 05:46:31 29.400 - 29.500 MHz
Uribyol 2 03 Sep 05:36:47 05:38:11 11° 307° (NW) 05:39:35 436.500 FM
Uosat F 03 Sep 05:37:34 05:42:35 73° 103° (ESE) 05:47:35 435.120 FM
RS-15 03 Sep 05:46:27 05:52:17 16° 96° (E) 05:58:02 29.354 - 29.394 USB, Beacon 29.352 USB
TMSAT-1 03 Sep 05:53:33 05:57:25 21° 300° (WNW) 06:01:16 436.925 FM
Hamsat 03 Sep 06:00:55 06:03:19 14° 89° (E) 06:05:40 145.90 MHz
OPAL 03 Sep 06:23:42 06:25:45 12° 271° (W) 06:27:49 ?
STRAND 1 03 Sep 06:31:01 06:35:52 47° 69° (ENE) 06:40:45 ?
JAS-2 03 Sep 06:31:25 06:36:06 31° 96° (E) 06:41:06 435.800 - 435.900 CW/SSB, 435.910 FM
UOSAT-12 03 Sep 06:32:47 06:37:06 37° 316° (NW) 06:41:30 437.025 FM, 437.400 FM
SO-50 03 Sep 06:38:50 06:39:29 10° 342° (NNW) 06:40:09 436.795 FM
KITSAT 1 03 Sep 06:40:49 06:48:09 36° 37° (NE) 06:55:25 435.175 FM
Saudisat 1A 03 Sep 06:44:18 06:48:45 84° 53° (NE) 06:53:09 436.775 MHz
Uosat F 03 Sep 07:17:38 07:20:49 17° 302° (WNW) 07:23:59 435.120 FM
AO-7 03 Sep 07:23:27 07:30:47 37° 304° (NW) 07:38:05 29.400 - 29.500 MHz
SO-67 03 Sep 07:33:03 07:35:29 18° 93° (E) 07:37:53 435.3500 MHz FM
Hamsat 03 Sep 07:35:23 07:39:41 60° 287° (WNW) 07:43:55 145.90 MHz
